This is the latest recevied weather packets stored in our database for station/object DG1ROH. If no packets are shown the sender has not sent any weather packets the latest 1 day(s).
| Time | Temp. | Humidity | Pressure | Rain* | Wind** | Luminosity | Snow |
|---|---|---|---|---|---|---|---|
| 1778034079 | 9.44° C | 93% | 1005.8 hPa | 1.78 mm | 0.45 m/s, 25° | 0 W/m² | - |
| 1778033957 | 9.44° C | 93% | 1005.8 hPa | 2.03 mm | 0.89 m/s, 20° | 0 W/m² | - |
| 1778033838 | 9.44° C | 93% | 1005.8 hPa | 1.78 mm | 0.89 m/s, 20° | 0 W/m² | - |
| 1778033718 | 9.44° C | 93% | 1005.8 hPa | 1.78 mm | 0.89 m/s, 0° | 0 W/m² | - |
| 1778033597 | 9.44° C | 93% | 1005.8 hPa | 1.78 mm | 0.89 m/s, 0° | 0 W/m² | - |
| 1778033478 | 9.44° C | 93% | 1005.8 hPa | 1.52 mm | 0.89 m/s, 19° | 0 W/m² | - |
| 1778033357 | 9.44° C | 93% | 1005.8 hPa | 1.52 mm | 0.89 m/s, 10° | 0 W/m² | - |
| 1778033238 | 9.44° C | 93% | 1005.9 hPa | 1.52 mm | 0.89 m/s, 11° | 0 W/m² | - |
| 1778033118 | 9.44° C | 93% | 1005.8 hPa | 1.52 mm | 0.89 m/s, 53° | 0 W/m² | - |
| 1778032998 | 9.44° C | 93% | 1005.9 hPa | 1.52 mm | 0.89 m/s, 0° | 0 W/m² | - |
| 1778032877 | 9.44° C | 93% | 1005.9 hPa | 1.52 mm | 0.89 m/s, 15° | 0 W/m² | - |
| 1778032757 | 9.44° C | 93% | 1005.9 hPa | 1.52 mm | 0.89 m/s, 323° | 0 W/m² | - |
| 1778032637 | 9.44° C | 93% | 1005.9 hPa | 1.52 mm | 0.89 m/s, 51° | 0 W/m² | - |
| 1778032518 | 9.44° C | 93% | 1006 hPa | 1.27 mm | 0.89 m/s, 23° | 0 W/m² | - |
| 1778032393 | 9.44° C | 93% | 1006 hPa | 1.27 mm | 0.89 m/s, 90° | 0 W/m² | - |
| 1778032274 | 9.44° C | 93% | 1006.1 hPa | 1.02 mm | 0.89 m/s, 18° | 0 W/m² | - |
| 1778032154 | 9.44° C | 93% | 1006 hPa | 1.02 mm | 0.89 m/s, 23° | 0 W/m² | - |
| 1778032034 | 9.44° C | 93% | 1006 hPa | 1.02 mm | 0.89 m/s, 46° | 0 W/m² | - |
| 1778031913 | 9.44° C | 93% | 1006 hPa | 0.76 mm | 0.89 m/s, 46° | 0 W/m² | - |
| 1778031794 | 9.44° C | 92% | 1006 hPa | 1.02 mm | 0.89 m/s, 16° | 0 W/m² | - |
| 1778031674 | 9.44° C | 92% | 1006 hPa | 1.02 mm | 0.45 m/s, 28° | 0 W/m² | - |
| 1778031551 | 10° C | 92% | 1006 hPa | 0.76 mm | 0.45 m/s, 44° | 0 W/m² | - |
| 1778031432 | 10° C | 92% | 1006 hPa | 0.76 mm | 0.89 m/s, 42° | 0 W/m² | - |
| 1778031311 | 9.44° C | 92% | 1006.1 hPa | 0.76 mm | 0.89 m/s, 92° | 0 W/m² | - |
| 1778031192 | 9.44° C | 92% | 1006.1 hPa | 0.76 mm | 0.89 m/s, 23° | 0 W/m² | - |
* Rain latest hour (hover to see other rain measurements)
** Current wind speed in m/s (hover to see current wind gust speed)